#timestamp,LO_Frequency,Hit,StdDev 
1651708815.2,286047000.4,N
1651708835.1,286047000.1,N
1651708836.0,286047000.1,N
1651708855.8,286047002.6,N
1651708875.7,286047002.3,N
1651708895.5,286047002.5,N
1651708915.3,286047002.7,N
1651708935.2,286047002.5,N
1651708955.0,286047002.6,N
1651708955.9,286047002.6,N
1651708975.7,286047002.7,N
1651708995.6,286047002.5,N
1651709015.4,286047000.1,N
1651709035.3,286047000.9,N
1651709055.1,286047000.1,N
1651709056.0,286047000.1,N
1651709075.8,286047002.8,N
1651709095.7,286046999.8,N
1651709115.5,286047002.6,N
1651709135.3,286046999.8,N
1651709155.2,286047002.0,N
1651709175.0,286047002.0,N
1651709175.9,286047002.0,N
1651709195.8,286047002.2,N
1651709215.6,286047001.6,N
1651709235.4,286047001.6,N
1651709255.3,286046999.7,N
1651709275.1,286047002.7,N
1651709295.8,286047002.1,N
1651709315.7,286047004.1,Y
1651709335.5,286047001.5,P
1651709355.4,286047000.4,P
1651709375.2,286046998.1,P
1651709395.0,286046998.7,N
1651709395.9,286046998.7,N
1651709415.8,286047000.3,N
1651709435.6,286046999.8,N
1651709455.5,286047002.7,N
1651709475.3,286047001.9,N
1651709495.1,286047002.5,N
1651709515.9,286047004.0,N
1651709535.7,286047004.2,N
1651709555.5,286047004.2,N
1651709575.4,286047001.3,N
1651709595.2,286047001.8,N
1651709615.1,286047001.7,N
1651709616.0,286047001.7,N
1651709635.8,286047004.1,N
1651709655.6,286047003.2,N
1651709675.5,286047004.1,N
1651709695.3,286047001.8,N
1651709715.1,286047001.4,N
1651709735.9,286047004.3,N
1651709755.7,286047001.8,N
1651709775.6,286047004.2,N
1651709795.4,286047004.4,N
1651709815.2,286047001.5,N
1651709835.1,286047002.0,N
1651709836.0,286047002.0,N
1651709855.8,286047002.5,N
1651709875.7,286047002.2,N
1651709895.5,286047001.5,N
1651709915.3,286047001.8,N
1651709935.2,286047003.9,N
1651709955.0,286047004.0,N
1651709955.9,286047004.0,Y
1651709975.7,286047000.8,P
1651709995.6,286047000.8,N
1651710015.4,286046998.5,N
1651710035.5,286047001.2,N
1651710055.4,286047000.0,N
1651710075.2,286047000.0,N
1651710095.1,286047001.0,N
1651710096.0,286047001.0,N
1651710115.8,286047000.7,N
1651710135.6,286047001.0,N
1651710155.5,286047000.4,N
1651710175.3,286047000.6,N
1651710195.1,286047000.5,N
1651710215.9,286047000.0,N
1651710235.7,286047002.8,Y
1651710255.6,286047002.8,P
1651710275.4,286047002.4,N
1651710295.2,286046999.8,N
1651710315.1,286046999.9,N
1651710316.0,286046999.9,N
1651710335.8,286047001.2,N
1651710355.6,286047000.7,N
1651710375.5,286047000.5,N
1651710395.3,286047000.6,N
1651710415.2,286047001.9,N
1651710435.9,286047002.4,N
1651710455.7,286047002.8,N
1651710475.6,286047002.0,N
1651710495.4,286047000.1,N
1651710515.2,286046999.9,N
1651710535.1,286046999.8,N
1651710536.0,286046999.8,N
1651710555.8,286047002.7,N
1651710575.7,286047000.2,N
1651710595.5,286046998.3,N
1651710615.3,286047000.0,N
1651710635.2,286047000.3,N
1651710655.0,286046999.8,N
1651710655.9,286046999.8,N
1651710675.8,286047002.8,N
1651710695.6,286047002.7,N
1651710715.4,286047002.0,N
1651710735.3,286047002.3,N
1651710755.1,286047002.3,N
1651710775.9,286047002.4,N
1651710795.7,286046999.8,N
1651710815.5,286047001.5,N
1651710835.4,286047000.1,N
1651710855.2,286046999.8,N
1651710875.0,286046999.9,N
1651710875.9,286046999.9,N
1651710895.8,286046999.8,N
1651710915.3,286047001.9,N
1651710935.1,286047001.7,N
1651710955.9,286047003.9,Y
1651710975.7,286047000.5,P
1651710995.6,286047000.2,N
1651711015.4,286047002.1,P
1651711035.2,286047000.6,N
1651711055.1,286047002.5,Y
1651711056.0,286047002.5,P
1651711075.8,286047000.6,N
1651711095.7,286046998.4,N
1651711115.5,286046999.8,N
1651711135.3,286047001.0,N
1651711155.2,286047000.4,N
1651711175.0,286047000.8,N
1651711175.9,286047000.8,N
1651711195.7,286047000.7,N
1651711215.6,286047000.9,N
1651711235.4,286047000.5,N
1651711255.3,286047000.0,N
1651711275.1,286047000.5,N
1651711276.0,286047000.5,N
1651711295.8,286047000.6,N
1651711315.7,286047000.6,N
1651711335.5,286046998.4,N
1651711355.4,286046998.3,N
1651711375.2,286047000.5,N
1651711395.0,286046999.9,N
1651711395.9,286046999.9,N
1651711415.8,286046999.9,N
1651711435.6,286047002.5,N
1651711455.4,286047002.2,N
1651711475.3,286047001.7,N
1651711495.1,286047004.4,Y
1651711515.9,286047002.8,P
1651711535.7,286047002.0,N
1651711555.5,286047000.1,N
1651711575.4,286047000.2,N
1651711595.2,286047000.1,N
1651711615.1,286046999.8,N
1651711616.0,286046999.8,N
1651711635.8,286046999.7,N
1651711655.6,286046999.7,N
1651711675.5,286047000.0,N
1651711695.3,286047000.6,N
1651711715.2,286047000.2,N
1651711735.9,286047000.0,N
1651711755.7,286047001.2,N
1651711775.6,286047002.8,Y
1651711795.4,286047000.0,P
1651711815.2,286047001.0,P
1651711835.1,286047000.8,N
1651711836.0,286047000.8,N
1651711855.8,286047001.2,Y
1651711875.7,286046996.5,P
1651711895.5,286046998.5,N
1651711915.3,286046996.5,N
1651711935.2,286046997.1,N
1651711955.0,286046997.3,N
1651711955.9,286046997.3,N
1651711975.8,286046997.3,N
1651711995.6,286046997.0,N
1651712015.4,286046997.0,N
1651712035.3,286046999.4,N
1651712055.1,286046998.2,N
1651712075.9,286047001.1,N
1651712095.0,286047000.6,N
1651712095.9,286047000.6,N
1651712115.8,286046999.7,N
1651712135.6,286047000.1,N
1651712155.4,286046999.7,N
1651712175.3,286047004.4,N
1651712195.1,286047002.4,N
1651712215.9,286047002.8,N
1651712235.7,286047000.1,N
1651712255.5,286047000.4,N
1651712275.4,286047001.2,N
1651712295.2,286047000.6,N
1651712315.0,286047002.3,N
1651712316.0,286047002.3,N
1651712335.8,286047000.0,N
1651712355.6,286047000.0,N
1651712375.5,286047000.4,N
1651712395.3,286047000.2,N
